www.pogodaiklimat.ru

Погода и климат >> Архив погоды >> Россия >> Крым >> Карадаг


ПОГОДА в Карадаге

  • Прогноз погоды в Карадаге
  • Монитор погоды в Карадаге

АРХИВ ПОГОДЫ в Карадаге

Время (UTC), дата Ветер
(напр.,м/с)
 
Видим.   Явления Облачность Т
(С)
Тd
(С)
f
(%)
Тe
(С)
Тes
(С)
Комфортность P
(гПа)
Po
(гПа)
Тmin
(С)
Tmax
(С)
R
(мм)
R24
(мм)
S
(см)
12 15.01 ЮЗ 4
{11}
20 км {ливн. осадки} 10/8 600 м
[Cb cap Ac cast]
+8.5 +3.9 73 +6 +6 1000.8 995.8
15 15.01 С 3 20 км слаб. ливневой дождь 10/10 300 м
[Cb cap]
+6.6 +3.0 78 +4 +4 999.8 994.8 0.8
18 15.01 С 9-14
{14}
20 км слаб. ливневой дождь 10/10 300 м
[Cb cap]
+2.5 +0.1 84 -5 -5 999.7 994.6 +9.0 2
21 15.01 СЗ 11-18
{18}
4000 м слаб. ливневой снег 10/10 300 м
[Cb cap]
-0.3 -2.4 86 -9 -9 999.8 994.6
00 16.01 СЗ 10-18
{23}
4000 м слаб. ливневой снег [диам. гололёда мм] 10/10 300 м
[Cb cap]
-0.3 -4.7 72 -8 -8 1000.8 995.6
06 16.01 З 4
{15}
50 км {ливн. осадки} 8/0
[Ac lent Ci fib]
-0.3 -7.5 58 -5 -5 1008.0 1002.8 -1.0 0.3 <0.5
09 16.01 З 4-10
{10}
50 км 3/0
[Ci fib]
+3.4 -6.8 47 -1 +2 1009.0 1003.9
12 16.01 ЮЗ 8-11
{10}
50 км 3/3 600 м
[Sc Ci fib]
+5.5 -6.9 40 +1 +1 1008.4 1003.3
15 16.01 З 1
{11}
20 км 10/6 600 м
[Sc Ac As]
+4.8 -5.5 47 +4 +4 1008.4 1003.3
18 16.01 ЮЗ 2 20 км слаб. крупа 9/6 600 м
[Cb cap Ac cast]
+4.7 -1.0 67 +2 +2 1008.0 1002.9 +6.5 0.0
21 16.01 С 2 20 км {ливн. осадки} 9/4 600 м
[Cb cap Ac cast]
+3.5 +1.2 85 +1 +1 1008.2 1003.1
00 17.01 СЗ 4 20 км {ливн. осадки} 9/0
[Ac cast Ci fib]
+4.0 -2.2 64 0 0 1009.7 1004.6
03 17.01 С 7-11
{11}
20 км 9/0
[Ci fib]
+2.4 -1.8 74 -4 -4 1012.0 1006.8 +1.6 0.5
06 17.01 С 6-10
{11}
50 км 8/1 600 м
[Sc Ac cast Ci fib]
+1.8 -2.6 73 -4 -4 1014.7 1009.5 +1.4 0.5
12 17.01 С 5 20 км 3/1 600 м
[Sc Ac cast]
+4.8 -1.8 62 +1 +1 1017.9 1012.7
15 17.01 СЗ 2 20 км 3/1 600 м
[Sc Ac cast]
+2.7 -1.8 72 -0 -0 1019.3 1014.1
18 17.01 В 1 20 км 9/4 600 м
[Sc Ac cast]
+2.1 -1.0 80 +1 +1 1020.7 1015.5 +6.2
21 17.01 СЗ 1 20 км слаб. ливневой дождь 9/8 300 м
[Cb cap Ac cast]
+3.7 +1.9 88 +2 +2 1021.0 1015.8
00 18.01 ЮЗ 4 20 км {ливн. осадки} 3/3 600 м
[Sc]
+5.4 +0.8 72 +2 +2 1020.6 1015.4
03 18.01 ЮЗ 3 20 км 9/4 600 м
[Sc Ac cast]
+5.2 +0.6 72 +2 +2 1020.0 1014.8 +0.7 0.0
06 18.01 ЮЗ 4 50 км 9/9 600 м
[Sc]
+6.4 +2.0 73 +3 +3 1020.2 1015.1 +2.0 0.0
09 18.01 Ю 10-13
{13}
50 км 9/9 600 м
[Sc]
+7.7 +4.2 78 +2 +2 1020.1 1015.0
12 18.01 Ю 7-12
{13}
20 км 10/10 600 м
[Sc]
+8.0 +4.4 78 +4 +4 1019.0 1013.9
15 18.01 ЮЗ 5
{12}
20 км 9/9 600 м
[Sc]
+8.7 +4.2 73 +5 +5 1019.1 1014.0
18 18.01 ЮЗ 5 20 км 9/9 600 м
[Sc]
+8.7 +3.8 71 +5 +5 1018.7 1013.6 +8.7
21 18.01 ЮЗ 4 20 км 9/6 600 м
[Sc As op]
+8.8 +3.8 71 +6 +6 1018.5 1013.4
00 19.01 Ю 3 20 км 8/5 600 м
[Sc As op Ci fib]
+8.8 +5.0 77 +6 +6 1017.9 1012.8
03 19.01 ЮЗ 3 20 км 9/4 600 м
[Sc As op Ci fib]
+8.7 +5.3 79 +6 +6 1016.7 1011.6 +7.5
06 19.01 З 2 50 км 9/8 600 м
[Sc Ac cast]
+8.8 +6.1 83 +7 +7 1016.6 1011.5 +6.7
09 19.01 ЮЗ 3 20 км 9/5 300 м
[Sc diur, vesp Ac lent]
+10.3 +7.2 81 +8 +9 1017.1 1012.0
12 19.01 В 2 50 км 9/4 300 м
[Sc diur, vesp Ac lent Ci]
+10.9 +8.3 84 +10 +10 1017.3 1012.3
15 19.01 СЗ 7-13
{11}
20 км 9/6 600 м
[Sc diur, vesp Ac lent Ci]
+5.2 +0.9 74 -0 -0 1020.2 1015.0
18 19.01 СЗ 6-12
{15}
20 км 8/3 600 м
[Sc Ac cast]
+3.2 0.0 80 -2 -2 1021.9 1016.7 +11.5
21 19.01 С 5
{12}
20 км 9/0
[Ac cast]
+2.0 -1.1 80 -3 -3 1023.6 1018.4
00 20.01 СЗ 6-10
{10}
20 км 9/0
[Ac cast Ci fib]
+0.4 -3.2 77 -6 -6 1024.3 1019.0
03 20.01 С 6
{11}
20 км 9/0
[Ac cast Ci fib]
-0.7 -3.5 81 -7 -7 1024.8 1019.5 -1.4
06 20.01 СЗ 3
{10}
20 км 9/3 600 м
[Sc Ac cast Ci fib]
-1.2 -4.8 76 -6 -6 1025.6 1020.3 -1.6
09 20.01 В 3 20 км 9/3 600 м
[Sc Ac cast Ci fib]
+2.2 -1.2 78 -2 -1 1025.5 1020.2
12 20.01 Ю 3 20 км 9/3 600 м
[Sc Ac cast Ci fib]
+4.1 +0.1 75 +1 +1 1023.1 1017.9
15 20.01 ЮЗ 3 20 км 10/8 600 м
[Sc Ac cast]
+4.0 +0.3 77 0 0 1022.2 1017.0
18 20.01 ЮЗ 3 20 км 9/9 600 м
[Sc]
+4.5 +1.5 81 +1 +1 1021.4 1016.2 +4.7
21 20.01 ЮЗ 5 20 км 10/10 600 м
[Sc]
+6.0 +2.6 79 +2 +2 1020.7 1015.5
00 21.01 ЮЗ 3 20 км 9/9 600 м
[Sc]
+6.8 +3.5 79 +4 +4 1018.6 1013.5
03 21.01 ЮЗ 4 20 км 9/9 600 м
[Sc]
+7.0 +3.3 77 +4 +4 1016.6 1011.5 +3.4
06 21.01 З 2 20 км 9/4 600 м
[Sc Ac cast Ci fib]
+7.1 +4.0 81 +5 +5 1015.3 1010.2 +3.8
09 21.01 Ю 4 20 км 9/5 600 м
[Sc Ac cast Ci fib]
+8.4 +4.5 76 +5 +6 1014.5 1009.4
12 21.01 Ю 4 20 км {ливн. осадки} 9/8 600 м
[Cb cap Ac cast Ci fib]
+9.2 +6.0 80 +6 +7 1013.0 1007.9
15 21.01 С 1
{10}
20 км {ливн. осадки} 8/5 600 м
[Sc Ac cast Ci fib]
+8.3 +6.3 87 +8 +8 1013.7 1008.6 0.4
18 21.01 СЗ 7-11
{11}
20 км {ливн. осадки} 9/8 600 м
[Cb cap Ac cast Ci]
+4.3 +0.7 77 -1 -1 1015.3 1010.1 +9.3 0.4
21 21.01 СЗ 12-19
{19}
20 км 9/9 300 м
[Cb cap]
+0.5 -0.9 90 -8 -8 1017.3 1012.1
00 22.01 СЗ 9-18
{20}
20 км 9/5 300 м
[Sc Ac cast Ci sp]
-0.9 -2.8 87 -9 -9 1019.3 1014.0

 

Местоположение метеостанции Карадаг (Крым, Россия): широта 44.90 долгота 35.20 высота над уровнем моря 42 м.

В архиве по умолчанию представлена погода в Карадаге за последнюю неделю. Архивные данные за месяц целиком и за предыдущие месяцы, начиная с января 2011 года, Вы можете получить, выбрав интересующий диапазон дат из раскрывающегося списка и нажав кнопку "Ввод!".


*Определитесь, кто Вы:
робот инопланетянин человек

Внимание! Время в таблицах - всемирное. Для получения местного времени необходимо прибавить поправку, которая равна 3 ч.

Смотрите также архив погоды в соседних городах и на ближайших метеорологических станциях:

Погода в Феодосии (Крым, Россия) (20 км)
Погода в Владиславовке (Крым, Россия) (33 км)
Погода в Белогорске (Крым, Россия) (50 км)
Погода в Алуште (Крым, Россия) (68 км)
Погода на Ангарском Перевале (Крым, Россия) (69 км)
Погода в Нижнегорском (Крым, Россия) (71 км)
Погода в Мысовом (Крым, Россия) (78 км)
Погода в Симферополе город (Крым, Россия) (85 км)
Погода в Никитском саду (Крым, Россия) (86 км)
Погода в Стрелковом (Херсонская область, Украина) (88 км)

Пояснения к столбцам:

Ветер - указаны скорость ветра в м/с - средняя за 10 мин, порывы в срок и между сроками (в фигурных скобках) и направление, откуда дует ветер: С - северный, СВ - северо-восточный, В - восточный, ЮВ - юго-восточный, Ю - южный, ЮЗ - юго-западный, З - западный, СЗ - северо-западный.
Видимость - горизонтальная дальность видимости в метрах или километрах. При видимости от 1 до 10 км при отсутствии осадков обычно наблюдается дымка, при ухудшении видимости до 1 км и менее - туман. В сухую погоду видимость может ухудшаться дымом, пылью или мглою.
Явления - указаны атмосферные явления, наблюдавшиеся в срок или в последний час перед сроком; фигурными скобками обозначены явления, наблюдавшиеся между сроками (за 1-3 часа до срока); квадратными скобками обозначены град или гололедные отложения с указанием их диаметра в мм.
Облачность - указаны через наклонную черту общая и нижняя облачность в баллах и высота нижней границы облаков в метрах; квадратными скобками обозначены формы облаков: Ci - перистые, Cs - перисто-слоистые, Cc - перисто-кучевые, Ac - высококучевые, As - высокослоистые, Sc - слоисто-кучевые, Ns - слоисто-дождевые, Cu - кучевые, Cb - кучево-дождевые. Подробнее классификацию облаков см. в Атласе облаков (PDF).
T - Температура воздуха - температура, измеренная на высоте 2 м над землей.
Td - Температура точки росы - температура, при понижении до которой содержащийся в воздухе водяной пар достигнет насыщения.
f - Относительная влажность воздуха - влажноcть воздуха, измеренная на высоте 2 м над землей.
Te - Эффективная температура - температура, которую ощущает одетый по сезону человек в тени. Характеристика душности погоды. При расчете учитывается влияние влажности воздуха и скорости ветра на теплоощущения человека.
Tes - Эффективная температура на солнце - температура, которую ощущает человек, с поправкой на солнечный нагрев. Характеристика знойности погоды. Зависит от высоты солнца над горизонтом, облачности и скорости ветра. Ночью, в пасмурную погоду, а также при ветре 12 м/с и более поправка равна нулю.
P - Атмосферное давление - приведенное к уровню моря атмосферное давление.
Po - Атмосферное давление - измеренное на уровне метеостанции атмосферное давление.
Tmin - Минимальная температура - минимум температуры воздуха на высоте 2 м над землей.
Tmax - Максимальная температура - максимум температуры воздуха на высоте 2 м над землей.
R - Количество осадков - Количество выпавших осадков за период времени, мм. При наведении курсора мыши на число - период времени, за который выпало указанное количество осадков.
R24 - Количество осадков - Количество выпавших осадков за 24 часа, мм.
S - Снежный покров - Высота снежного покрова, см. При наведении курсора мыши на число - состояние снежного покрова и степень покрытия местности в баллах.